Orbital Elements at Epoch 2459200.5 (2020-Dec-17.0) TDB
Reference: JPL 26 (heliocentric ecliptic J2000)
Element | Value | Uncertainty (1-sigma) | Units |
e | .1102256739102344 | 3.2116e-08 | |
a | 2.975817447163497 | 1.4364e-08 | au |
q | 2.647805963616067 | 1.0067e-07 | au |
i | 3.523551090932967 | 3.3803e-06 | deg |
node | 134.4283577741122 | 7.1457e-05 | deg |
peri | 355.9869638355094 | 7.5001e-05 | deg |
M | 306.6202269199965 | 2.1883e-05 | deg |
tp | 2459478.523865921177 (2021-Sep-21.02386592) | 0.00011406 | TDB |
period | 1875.028422874993 5.13 | 1.3576e-05 3.717e-08 | d yr |
n | .19199708954172 | 1.3902e-09 | deg/d |
Q | 3.303828930710926 | 1.5948e-08 | au |
|
| | Orbit Determination Parameters
Additional Information
|